NOZ1309 EGKK-ENGM

Flight info

Callsign NOZ1309
Flight time 1h 46m
Altitude 37000
Route FRANE M604 GIVPO DCT LARGA DCT INBOB M604 LANTI DCT VAVET DCT PIPEX M609 RIPAM
Aircraft B738/M-SDE2E3FGHIRWXY/LB1

Departure

Time 2026-04-16 21:19
Airport London Gatwick Airport (EGKK)

Arrival

Time 2026-04-16 23:06
Airport Oslo-Gardermoen International Airport (ENGM)
Time Latitude Longitude Altitude Speed Heading
2026-04-16 20:56 51.15516 -0.16717 199 ft 0 kts 347°
2026-04-16 21:11 51.15511 -0.16715 199 ft 2 kts 347°
2026-04-16 21:11 51.15497 -0.16710 199 ft 2 kts 347°
2026-04-16 21:11 51.15482 -0.16704 199 ft 2 kts 347°
2026-04-16 21:12 51.15472 -0.16701 199 ft 1 kts 347°
2026-04-16 21:12 51.15459 -0.16692 199 ft 2 kts 315°
2026-04-16 21:12 51.15451 -0.16672 199 ft 2 kts 287°
2026-04-16 21:12 51.15449 -0.16652 199 ft 0 kts 262°
2026-04-16 21:13 51.15451 -0.16642 199 ft 1 kts 257°
2026-04-16 21:13 51.15451 -0.16641 198 ft 0 kts 258°
2026-04-16 21:16 51.15447 -0.16669 198 ft 4 kts 258°
2026-04-16 21:16 51.15418 -0.16713 199 ft 9 kts 180°
2026-04-16 21:16 51.15352 -0.16696 199 ft 10 kts 162°
2026-04-16 21:17 51.15305 -0.16672 199 ft 3 kts 162°
2026-04-16 21:17 51.15265 -0.16656 199 ft 6 kts 169°
2026-04-16 21:17 51.15202 -0.16636 199 ft 11 kts 169°
2026-04-16 21:17 51.15133 -0.16710 199 ft 15 kts 260°
2026-04-16 21:18 51.15117 -0.16843 199 ft 10 kts 258°
2026-04-16 21:18 51.15102 -0.16948 199 ft 9 kts 257°
2026-04-16 21:18 51.15081 -0.17096 199 ft 32 kts 257°
2026-04-16 21:18 51.14978 -0.17837 199 ft 101 kts 258°
2026-04-16 21:19 51.14787 -0.19235 199 ft 156 kts 257°
2026-04-16 21:19 51.14554 -0.21055 564 ft 172 kts 257°
2026-04-16 21:19 51.14324 -0.22888 1338 ft 168 kts 256°
2026-04-16 21:19 51.14117 -0.24670 2012 ft 166 kts 256°
2026-04-16 21:20 51.13889 -0.26550 2345 ft 180 kts 255°
2026-04-16 21:20 51.13678 -0.28624 2649 ft 201 kts 268°
2026-04-16 21:20 51.14100 -0.30823 3037 ft 224 kts 299°
2026-04-16 21:20 51.15279 -0.32636 3416 ft 248 kts 329°
2026-04-16 21:21 51.16918 -0.33351 4008 ft 255 kts 354°
2026-04-16 21:21 51.18677 -0.32731 3957 ft 262 kts 30°
2026-04-16 21:21 51.19930 -0.30775 3963 ft 250 kts 62°
2026-04-16 21:21 51.20480 -0.28183 3959 ft 246 kts 89°
2026-04-16 21:22 51.20321 -0.25515 3966 ft 241 kts 109°
2026-04-16 21:22 51.19989 -0.22909 3955 ft 243 kts 95°
2026-04-16 21:22 51.20208 -0.20129 4082 ft 266 kts 74°
2026-04-16 21:22 51.21059 -0.17420 4551 ft 279 kts 57°
2026-04-16 21:23 51.22180 -0.14901 5147 ft 284 kts 54°
2026-04-16 21:23 51.23352 -0.12363 5822 ft 287 kts 55°
2026-04-16 21:23 51.24513 -0.09764 6521 ft 289 kts 56°
2026-04-16 21:23 51.25654 -0.07121 7193 ft 293 kts 57°
2026-04-16 21:24 51.26800 -0.04414 7862 ft 297 kts 57°
2026-04-16 21:24 51.27953 -0.01661 8520 ft 301 kts 57°
2026-04-16 21:24 51.29107 0.01095 9231 ft 303 kts 57°
2026-04-16 21:24 51.30290 0.03920 9924 ft 307 kts 57°
2026-04-16 21:25 51.31474 0.06747 10561 ft 313 kts 57°
2026-04-16 21:25 51.32713 0.09710 10920 ft 329 kts 57°
2026-04-16 21:25 51.34024 0.12851 11324 ft 344 kts 57°
2026-04-16 21:25 51.35368 0.16071 11659 ft 361 kts 57°
2026-04-16 21:26 51.36790 0.19478 12082 ft 374 kts 56°
2026-04-16 21:26 51.38245 0.22968 12696 ft 381 kts 56°
2026-04-16 21:26 51.39739 0.26559 13362 ft 387 kts 56°
2026-04-16 21:26 51.41234 0.30159 14070 ft 391 kts 56°
2026-04-16 21:27 51.42740 0.33791 14772 ft 396 kts 56°
2026-04-16 21:27 51.44260 0.37460 15476 ft 401 kts 56°
2026-04-16 21:27 51.45806 0.41197 16232 ft 404 kts 56°
2026-04-16 21:27 51.47362 0.44964 16920 ft 408 kts 56°
2026-04-16 21:28 51.48923 0.48751 17595 ft 412 kts 56°
2026-04-16 21:28 51.50501 0.52586 18252 ft 416 kts 56°
2026-04-16 21:28 51.52113 0.56508 18897 ft 420 kts 55°
2026-04-16 21:28 51.53708 0.60379 19515 ft 424 kts 54°
2026-04-16 21:29 51.55523 0.64223 20096 ft 429 kts 47°
2026-04-16 21:29 51.57654 0.67527 20664 ft 431 kts 37°
2026-04-16 21:29 51.60135 0.70241 21275 ft 431 kts 26°
2026-04-16 21:29 51.62848 0.72239 21833 ft 431 kts 17°
2026-04-16 21:30 51.65704 0.73659 22443 ft 431 kts 11°
2026-04-16 21:30 51.68618 0.74794 22943 ft 435 kts
2026-04-16 21:30 51.71578 0.75817 23511 ft 437 kts
2026-04-16 21:30 51.74559 0.76817 24022 ft 441 kts
2026-04-16 21:31 51.77598 0.77838 24523 ft 446 kts
2026-04-16 21:31 51.80587 0.79087 25024 ft 452 kts 14°
2026-04-16 21:31 51.83508 0.81037 25536 ft 460 kts 24°
2026-04-16 21:31 51.86260 0.83761 26034 ft 467 kts 33°
2026-04-16 21:32 51.88782 0.87071 26534 ft 473 kts 39°
2026-04-16 21:32 51.91209 0.90747 27013 ft 477 kts 41°
2026-04-16 21:32 51.93562 0.94509 27559 ft 478 kts 42°
2026-04-16 21:32 51.95916 0.98296 28000 ft 482 kts 42°
2026-04-16 21:33 51.98322 1.02119 28514 ft 483 kts 41°
2026-04-16 21:33 52.00736 1.05889 28900 ft 487 kts 40°
2026-04-16 21:33 52.03208 1.09692 29490 ft 486 kts 40°
2026-04-16 21:33 52.05683 1.13389 30212 ft 481 kts 38°
2026-04-16 21:34 52.08213 1.16826 30804 ft 477 kts 34°
2026-04-16 21:34 52.10821 1.20118 31314 ft 476 kts 33°
2026-04-16 21:34 52.13483 1.23394 31722 ft 477 kts 33°
2026-04-16 21:34 52.16109 1.26745 32144 ft 479 kts 34°
2026-04-16 21:35 52.18681 1.30135 32565 ft 479 kts 35°
2026-04-16 21:35 52.21255 1.33597 32988 ft 480 kts 35°
2026-04-16 21:35 52.23827 1.37096 33390 ft 480 kts 36°
2026-04-16 21:35 52.26451 1.40684 33702 ft 482 kts 36°
2026-04-16 21:36 52.29060 1.44258 33982 ft 485 kts 35°
2026-04-16 21:36 52.31662 1.47835 34463 ft 482 kts 35°
2026-04-16 21:36 52.34206 1.51420 34916 ft 480 kts 37°
2026-04-16 21:36 52.36631 1.55170 35341 ft 478 kts 40°
2026-04-16 21:37 52.38985 1.59064 35774 ft 475 kts 41°
2026-04-16 21:37 52.41283 1.62991 36153 ft 473 kts 42°
2026-04-16 21:37 52.43534 1.66882 36441 ft 472 kts 43°
2026-04-16 21:37 52.45788 1.70780 36611 ft 475 kts 43°
2026-04-16 21:38 52.48081 1.74730 36736 ft 479 kts 43°
2026-04-16 21:38 52.50373 1.78666 37029 ft 479 kts 43°
2026-04-16 21:38 52.52686 1.82628 37163 ft 481 kts 43°
2026-04-16 21:39 52.57259 1.90451 37156 ft 473 kts 42°
2026-04-16 21:39 52.61823 1.98254 37146 ft 475 kts 42°
2026-04-16 21:40 52.66390 2.06073 37146 ft 475 kts 42°
2026-04-16 21:40 52.70957 2.13917 37147 ft 474 kts 42°
2026-04-16 21:41 52.75515 2.21767 37158 ft 474 kts 41°
2026-04-16 21:41 52.80050 2.29597 37148 ft 474 kts 41°
2026-04-16 21:42 52.84602 2.37480 37152 ft 474 kts 41°
2026-04-16 21:42 52.89119 2.45322 37158 ft 473 kts 41°
2026-04-16 21:43 52.93670 2.53251 37171 ft 474 kts 41°
2026-04-16 21:43 52.98365 2.60830 37165 ft 470 kts 33°
2026-04-16 21:44 53.03717 2.66600 37173 ft 460 kts 22°
2026-04-16 21:44 53.09417 2.71354 37173 ft 458 kts 20°
2026-04-16 21:45 53.15181 2.75930 37167 ft 458 kts 19°
2026-04-16 21:45 53.20893 2.80540 37168 ft 457 kts 20°
2026-04-16 21:46 53.26618 2.85256 37169 ft 457 kts 20°
2026-04-16 21:46 53.32327 2.89931 37166 ft 457 kts 19°
2026-04-16 21:47 53.38065 2.94413 37173 ft 456 kts 18°
2026-04-16 21:47 53.43845 2.98894 37162 ft 455 kts 18°
2026-04-16 21:48 53.49628 3.03408 37159 ft 456 kts 19°
2026-04-16 21:48 53.55337 3.07898 37158 ft 456 kts 19°
2026-04-16 21:49 53.61070 3.12434 37160 ft 456 kts 19°
2026-04-16 21:49 53.66800 3.16989 37157 ft 455 kts 19°
2026-04-16 21:50 53.72499 3.21535 37164 ft 455 kts 19°
2026-04-16 21:50 53.78228 3.26116 37160 ft 456 kts 19°
2026-04-16 21:51 53.83910 3.30674 37168 ft 456 kts 19°
2026-04-16 21:51 53.89625 3.35272 37154 ft 455 kts 19°
2026-04-16 21:52 53.95315 3.39864 37164 ft 455 kts 19°
2026-04-16 21:52 54.01017 3.44482 37156 ft 454 kts 19°
2026-04-16 21:53 54.06701 3.49097 37155 ft 455 kts 19°
2026-04-16 21:53 54.12368 3.53713 37163 ft 453 kts 19°
2026-04-16 21:54 54.18085 3.58383 37163 ft 455 kts 19°
2026-04-16 21:54 54.23789 3.63055 37153 ft 455 kts 19°
2026-04-16 21:55 54.29468 3.67722 37164 ft 455 kts 20°
2026-04-16 21:55 54.35151 3.72410 37168 ft 453 kts 19°
2026-04-16 21:56 54.40856 3.77127 37166 ft 455 kts 19°
2026-04-16 21:56 54.46521 3.81829 37166 ft 452 kts 19°
2026-04-16 21:57 54.52180 3.86538 37172 ft 453 kts 19°
2026-04-16 21:57 54.57867 3.91281 37163 ft 454 kts 20°
2026-04-16 21:58 54.63526 3.96021 37173 ft 453 kts 20°
2026-04-16 21:58 54.69180 4.00771 37171 ft 453 kts 19°
2026-04-16 21:59 54.74787 4.05495 37162 ft 452 kts 19°
2026-04-16 21:59 54.80483 4.10308 37169 ft 452 kts 19°
2026-04-16 22:00 54.86143 4.15123 37171 ft 453 kts 21°
2026-04-16 22:00 54.91627 4.20688 37172 ft 458 kts 26°
2026-04-16 22:01 54.96939 4.26731 37169 ft 458 kts 27°
2026-04-16 22:01 55.02202 4.32811 37171 ft 456 kts 27°
2026-04-16 22:02 55.07526 4.38919 37173 ft 457 kts 27°
2026-04-16 22:02 55.12855 4.44998 37167 ft 456 kts 27°
2026-04-16 22:03 55.18139 4.51012 37162 ft 456 kts 27°
2026-04-16 22:03 55.23418 4.57026 37158 ft 456 kts 27°
2026-04-16 22:04 55.28714 4.63075 37167 ft 454 kts 27°
2026-04-16 22:04 55.34018 4.69145 37169 ft 457 kts 27°
2026-04-16 22:05 55.39325 4.75238 37161 ft 455 kts 28°
2026-04-16 22:05 55.44602 4.81320 37170 ft 455 kts 28°
2026-04-16 22:06 55.49856 4.87394 37166 ft 454 kts 28°
2026-04-16 22:06 55.57758 4.96564 37166 ft 454 kts 28°
2026-04-16 22:07 55.63042 5.02721 37173 ft 454 kts 28°
2026-04-16 22:07 55.68306 5.08876 37172 ft 453 kts 28°
2026-04-16 22:08 55.73553 5.15033 37175 ft 453 kts 28°
2026-04-16 22:08 55.78776 5.21180 37177 ft 454 kts 28°
2026-04-16 22:09 55.84012 5.27364 37328 ft 455 kts 28°
2026-04-16 22:09 55.89217 5.33540 37187 ft 450 kts 28°
2026-04-16 22:10 55.94392 5.39692 37182 ft 449 kts 28°
2026-04-16 22:10 55.99599 5.45895 37181 ft 450 kts 28°
2026-04-16 22:11 56.04790 5.52103 37183 ft 450 kts 28°
2026-04-16 22:11 56.09948 5.58294 37184 ft 450 kts 28°
2026-04-16 22:12 56.15138 5.64542 37185 ft 449 kts 28°
2026-04-16 22:12 56.20286 5.70763 37192 ft 449 kts 29°
2026-04-16 22:13 56.25468 5.77045 37191 ft 450 kts 29°
2026-04-16 22:13 56.30620 5.83311 37187 ft 449 kts 29°
2026-04-16 22:14 56.35754 5.89578 37188 ft 450 kts 29°
2026-04-16 22:14 56.40924 5.95905 37195 ft 449 kts 30°
2026-04-16 22:15 56.46070 6.02226 37188 ft 449 kts 30°
2026-04-16 22:15 56.51208 6.08558 37188 ft 449 kts 30°
2026-04-16 22:16 56.56382 6.14957 37190 ft 449 kts 30°
2026-04-16 22:16 56.61510 6.21319 37196 ft 449 kts 30°
2026-04-16 22:17 56.66673 6.27743 37190 ft 449 kts 30°
2026-04-16 22:17 56.71807 6.34155 37192 ft 450 kts 30°
2026-04-16 22:18 56.76950 6.40600 37189 ft 449 kts 30°
2026-04-16 22:18 56.82088 6.47063 37191 ft 449 kts 30°
2026-04-16 22:19 56.87193 6.53506 37187 ft 448 kts 30°
2026-04-16 22:19 56.92300 6.59972 37191 ft 449 kts 30°
2026-04-16 22:20 56.97425 6.66479 37192 ft 449 kts 31°
2026-04-16 22:20 57.02627 6.72935 37189 ft 449 kts 28°
2026-04-16 22:21 57.07951 6.78751 37182 ft 446 kts 26°
2026-04-16 22:21 57.13309 6.84392 37178 ft 446 kts 26°
2026-04-16 22:22 57.18692 6.90121 37185 ft 447 kts 27°
2026-04-16 22:22 57.24031 6.95892 37200 ft 447 kts 27°
2026-04-16 22:23 57.29377 7.01729 37197 ft 447 kts 27°
2026-04-16 22:23 57.34663 7.07538 37199 ft 446 kts 27°
2026-04-16 22:24 57.40006 7.13434 37200 ft 446 kts 27°
2026-04-16 22:24 57.45295 7.19291 37202 ft 447 kts 27°
2026-04-16 22:25 57.50592 7.25259 37206 ft 446 kts 29°
2026-04-16 22:25 57.55766 7.31657 37207 ft 448 kts 31°
2026-04-16 22:26 57.60916 7.38239 37209 ft 448 kts 31°
2026-04-16 22:26 57.66037 7.44789 37208 ft 448 kts 31°
2026-04-16 22:27 57.71176 7.51342 37212 ft 447 kts 31°
2026-04-16 22:27 57.76308 7.57879 37212 ft 448 kts 31°
2026-04-16 22:28 57.81455 7.64448 37212 ft 447 kts 31°
2026-04-16 22:28 57.86591 7.71018 37213 ft 448 kts 32°
2026-04-16 22:29 57.91725 7.77605 37213 ft 447 kts 32°
2026-04-16 22:29 57.96876 7.84234 37216 ft 447 kts 32°
2026-04-16 22:30 58.01999 7.90853 37215 ft 449 kts 32°
2026-04-16 22:30 58.07144 7.97525 37213 ft 448 kts 32°
2026-04-16 22:31 58.12281 8.04208 36976 ft 449 kts 32°
2026-04-16 22:31 58.14852 8.07562 36749 ft 445 kts 32°
2026-04-16 22:31 58.17359 8.10841 36515 ft 439 kts 32°
2026-04-16 22:32 58.19849 8.14104 36285 ft 436 kts 32°
2026-04-16 22:32 58.22335 8.17366 35998 ft 435 kts 32°
2026-04-16 22:32 58.24841 8.20658 35706 ft 434 kts 32°
2026-04-16 22:32 58.27311 8.23907 35416 ft 431 kts 32°
2026-04-16 22:33 58.29767 8.27145 35125 ft 428 kts 32°
2026-04-16 22:33 58.32191 8.30348 34836 ft 425 kts 32°
2026-04-16 22:33 58.34597 8.33531 34520 ft 422 kts 32°
2026-04-16 22:33 58.37030 8.36755 34187 ft 419 kts 32°
2026-04-16 22:34 58.39395 8.39897 33840 ft 416 kts 32°
2026-04-16 22:34 58.41740 8.43017 33503 ft 412 kts 32°
2026-04-16 22:34 58.44097 8.46156 33156 ft 409 kts 32°
2026-04-16 22:34 58.46408 8.49239 32818 ft 406 kts 31°
2026-04-16 22:35 58.48702 8.52302 32479 ft 404 kts 32°
2026-04-16 22:35 58.51009 8.55388 32134 ft 401 kts 31°
2026-04-16 22:35 58.53275 8.58424 31789 ft 398 kts 31°
2026-04-16 22:35 58.55528 8.61448 31445 ft 395 kts 31°
2026-04-16 22:36 58.57752 8.64437 31102 ft 392 kts 31°
2026-04-16 22:36 58.59960 8.67411 30726 ft 389 kts 32°
2026-04-16 22:36 58.62170 8.70392 30346 ft 387 kts 32°
2026-04-16 22:36 58.64354 8.73341 29964 ft 385 kts 33°
2026-04-16 22:37 58.66522 8.76375 29583 ft 384 kts 34°
2026-04-16 22:37 58.68628 8.79503 29200 ft 382 kts 36°
2026-04-16 22:37 58.70696 8.82662 28824 ft 380 kts 36°
2026-04-16 22:37 58.72743 8.85816 28440 ft 378 kts 36°
2026-04-16 22:38 58.74773 8.88944 28064 ft 375 kts 36°
2026-04-16 22:38 58.76790 8.92048 27694 ft 373 kts 36°
2026-04-16 22:38 58.78811 8.95148 27313 ft 371 kts 36°
2026-04-16 22:38 58.80808 8.98208 26937 ft 368 kts 36°
2026-04-16 22:39 58.82793 9.01247 26563 ft 365 kts 36°
2026-04-16 22:39 58.84761 9.04261 26242 ft 362 kts 36°
2026-04-16 22:39 58.86748 9.07305 25922 ft 361 kts 36°
2026-04-16 22:39 58.88699 9.10298 25601 ft 361 kts 36°
2026-04-16 22:40 58.90652 9.13296 25285 ft 359 kts 36°
2026-04-16 22:40 58.92615 9.16315 24964 ft 358 kts 36°
2026-04-16 22:40 58.94543 9.19283 24648 ft 356 kts 36°
2026-04-16 22:40 58.96467 9.22251 24335 ft 354 kts 36°
2026-04-16 22:41 58.98388 9.25218 24018 ft 353 kts 36°
2026-04-16 22:41 59.00303 9.28181 23700 ft 351 kts 36°
2026-04-16 22:41 59.02202 9.31121 23387 ft 350 kts 36°
2026-04-16 22:41 59.04089 9.34048 23073 ft 349 kts 36°
2026-04-16 22:42 59.05971 9.36971 22756 ft 347 kts 36°
2026-04-16 22:42 59.07861 9.39910 22443 ft 346 kts 36°
2026-04-16 22:42 59.09718 9.42803 22130 ft 345 kts 36°
2026-04-16 22:42 59.11595 9.45732 21818 ft 344 kts 36°
2026-04-16 22:43 59.13442 9.48617 21506 ft 342 kts 36°
2026-04-16 22:43 59.15301 9.51524 21193 ft 341 kts 37°
2026-04-16 22:43 59.17143 9.54409 20876 ft 340 kts 37°
2026-04-16 22:43 59.18984 9.57258 20565 ft 340 kts 35°
2026-04-16 22:44 59.20882 9.59907 20259 ft 338 kts 32°
2026-04-16 22:44 59.22852 9.62441 19943 ft 336 kts 30°
2026-04-16 22:44 59.24811 9.64891 19635 ft 335 kts 30°
2026-04-16 22:44 59.26769 9.67342 19323 ft 334 kts 31°
2026-04-16 22:45 59.28715 9.69799 19010 ft 332 kts 31°
2026-04-16 22:45 59.30653 9.72264 18696 ft 331 kts 32°
2026-04-16 22:45 59.32582 9.74740 18392 ft 330 kts 33°
2026-04-16 22:45 59.34425 9.77347 18099 ft 328 kts 37°
2026-04-16 22:46 59.36203 9.80144 17849 ft 327 kts 38°
2026-04-16 22:46 59.37946 9.82998 17598 ft 329 kts 39°
2026-04-16 22:46 59.39690 9.85859 17348 ft 326 kts 39°
2026-04-16 22:46 59.41425 9.88680 17095 ft 325 kts 38°
2026-04-16 22:47 59.43150 9.91460 16849 ft 325 kts 38°
2026-04-16 22:47 59.44913 9.94290 16595 ft 324 kts 38°
2026-04-16 22:47 59.46648 9.97068 16339 ft 323 kts 38°
2026-04-16 22:47 59.48381 9.99844 16089 ft 322 kts 38°
2026-04-16 22:48 59.50114 10.02626 15833 ft 321 kts 38°
2026-04-16 22:48 59.51838 10.05397 15576 ft 321 kts 38°
2026-04-16 22:48 59.53551 10.08155 15330 ft 319 kts 38°
2026-04-16 22:48 59.55280 10.10943 15065 ft 318 kts 38°
2026-04-16 22:49 59.56984 10.13694 14801 ft 318 kts 38°
2026-04-16 22:49 59.58685 10.16443 14554 ft 317 kts 38°
2026-04-16 22:49 59.60372 10.19174 14306 ft 315 kts 38°
2026-04-16 22:49 59.62055 10.21901 14068 ft 314 kts 38°
2026-04-16 22:50 59.63749 10.24649 13813 ft 312 kts 39°
2026-04-16 22:50 59.65407 10.27341 13571 ft 311 kts 39°
2026-04-16 22:50 59.67087 10.30072 13331 ft 309 kts 39°
2026-04-16 22:50 59.68738 10.32759 13090 ft 309 kts 39°
2026-04-16 22:51 59.70381 10.35438 12854 ft 307 kts 39°
2026-04-16 22:51 59.72104 10.37884 12596 ft 305 kts 28°
2026-04-16 22:51 59.74066 10.39253 12286 ft 301 kts
2026-04-16 22:51 59.76088 10.38677 11986 ft 292 kts 334°
2026-04-16 22:52 59.77757 10.36485 11694 ft 283 kts 316°
2026-04-16 22:52 59.79214 10.33889 11389 ft 283 kts 315°
2026-04-16 22:52 59.80674 10.31312 11081 ft 282 kts 316°
2026-04-16 22:52 59.82182 10.28852 10775 ft 282 kts 323°
2026-04-16 22:53 59.83910 10.26995 10471 ft 284 kts 335°
2026-04-16 22:53 59.85756 10.25643 10165 ft 281 kts 340°
2026-04-16 22:53 59.87587 10.24434 9858 ft 278 kts 340°
2026-04-16 22:53 59.89408 10.23200 9548 ft 275 kts 339°
2026-04-16 22:54 59.91198 10.21943 9239 ft 272 kts 340°
2026-04-16 22:54 59.93026 10.21089 8920 ft 270 kts 352°
2026-04-16 22:54 59.94884 10.20913 8603 ft 268 kts 359°
2026-04-16 22:54 59.96723 10.20985 8291 ft 266 kts
2026-04-16 22:55 59.98546 10.21440 7978 ft 263 kts 19°
2026-04-16 22:55 60.00033 10.23321 7711 ft 257 kts 49°
2026-04-16 22:55 60.00922 10.26329 7493 ft 249 kts 72°
2026-04-16 22:55 60.01293 10.29685 7261 ft 246 kts 88°
2026-04-16 22:56 60.01192 10.33044 7056 ft 243 kts 101°
2026-04-16 22:56 60.00893 10.36338 6868 ft 243 kts 102°
2026-04-16 22:56 60.00583 10.39670 6671 ft 241 kts 101°
2026-04-16 22:56 60.00307 10.42953 6489 ft 240 kts 101°
2026-04-16 22:57 60.00053 10.46195 6297 ft 239 kts 100°
2026-04-16 22:57 59.99799 10.49485 6100 ft 237 kts 100°
2026-04-16 22:57 59.99553 10.52705 5922 ft 237 kts 100°
2026-04-16 22:57 59.99301 10.55974 5758 ft 236 kts 100°
2026-04-16 22:58 59.99051 10.59183 5600 ft 236 kts 100°
2026-04-16 22:58 59.98796 10.62442 5436 ft 235 kts 100°
2026-04-16 22:58 59.98547 10.65646 5273 ft 235 kts 101°
2026-04-16 22:58 59.98296 10.68861 5109 ft 234 kts 101°
2026-04-16 22:59 59.98043 10.72054 4947 ft 234 kts 101°
2026-04-16 22:59 59.97789 10.75253 4782 ft 233 kts 101°
2026-04-16 22:59 59.97536 10.78465 4613 ft 232 kts 101°
2026-04-16 22:59 59.97416 10.81665 4442 ft 233 kts 90°
2026-04-16 23:00 59.97555 10.84882 4276 ft 230 kts 84°
2026-04-16 23:00 59.97765 10.87995 4102 ft 223 kts 84°
2026-04-16 23:00 59.97957 10.91021 3961 ft 215 kts 85°
2026-04-16 23:00 59.98117 10.93913 3973 ft 208 kts 86°
2026-04-16 23:01 59.98304 10.96706 3959 ft 201 kts 79°
2026-04-16 23:01 59.98889 10.99168 3958 ft 195 kts 49°
2026-04-16 23:01 59.99978 11.00774 3964 ft 196 kts 28°
2026-04-16 23:01 60.01241 11.01721 3964 ft 194 kts 13°
2026-04-16 23:02 60.02529 11.02231 3880 ft 188 kts 12°
2026-04-16 23:02 60.03814 11.02873 3618 ft 189 kts 15°
2026-04-16 23:02 60.05069 11.03604 3345 ft 188 kts 16°
2026-04-16 23:02 60.06312 11.04326 3078 ft 186 kts 16°
2026-04-16 23:03 60.07513 11.05009 2806 ft 175 kts 16°
2026-04-16 23:03 60.08632 11.05649 2614 ft 162 kts 16°
2026-04-16 23:03 60.09696 11.06259 2342 ft 156 kts 15°
2026-04-16 23:03 60.10727 11.06846 2156 ft 154 kts 15°
2026-04-16 23:04 60.11755 11.07433 1927 ft 153 kts 15°
2026-04-16 23:04 60.12779 11.08024 1744 ft 152 kts 15°
2026-04-16 23:04 60.13798 11.08625 1558 ft 152 kts 15°
2026-04-16 23:04 60.14805 11.09206 1344 ft 153 kts 15°
2026-04-16 23:05 60.15838 11.09778 1100 ft 153 kts 15°
2026-04-16 23:05 60.16834 11.10352 890 ft 149 kts 17°
2026-04-16 23:05 60.17819 11.10924 703 ft 145 kts 16°
2026-04-16 23:05 60.18678 11.11423 687 ft 100 kts 16°
2026-04-16 23:06 60.19130 11.11681 687 ft 41 kts 16°
2026-04-16 23:06 60.19426 11.11853 686 ft 41 kts 11°
2026-04-16 23:06 60.19645 11.11872 686 ft 17 kts 343°
2026-04-16 23:06 60.19707 11.11756 686 ft 4 kts 291°
2026-04-16 23:07 60.19711 11.11735 686 ft 0 kts 291°
2026-04-16 23:07 60.19716 11.11707 686 ft 5 kts 290°
2026-04-16 23:07 60.19730 11.11604 686 ft 6 kts 284°
2026-04-16 23:07 60.19730 11.11471 686 ft 13 kts 223°
2026-04-16 23:08 60.19640 11.11405 687 ft 13 kts 195°
2026-04-16 23:08 60.19552 11.11357 686 ft 13 kts 195°
2026-04-16 23:08 60.19464 11.11307 687 ft 13 kts 195°
2026-04-16 23:08 60.19426 11.11201 687 ft 11 kts 278°
2026-04-16 23:09 60.19448 11.11037 687 ft 12 kts 284°
2026-04-16 23:09 60.19397 11.10944 687 ft 8 kts 195°
2026-04-16 23:09 60.19366 11.10927 687 ft 1 kts 196°
2026-04-16 23:09 60.19363 11.10925 687 ft 0 kts 196°